| time (UTC) | temp F | wind direction | speed knots | gust knots | rain 1hr in | rain 24hr in | rain mn in | humidity % | barometer mb |
| 20260506035017 | 64 | 293 | 3.5 | 7.8 | 0.00 | 0.00 | 0.00 | 48 | 1014.1 |
| 20260506034017 | 64 | 315 | 2.6 | 7.0 | 0.00 | 0.00 | 0.00 | 49 | 1013.9 |
| 20260506033016 | 65 | 338 | 3.5 | 7.0 | 0.00 | 0.00 | 0.00 | 50 | 1013.8 |
| 20260506032019 | 66 | 0 | 2.6 | 5.2 | 0.00 | 0.00 | 0.00 | 50 | 1013.0 |
| 20260506031019 | 66 | 315 | 2.6 | 7.8 | 0.00 | 0.00 | 0.00 | 49 | 1012.9 |
| 20260506030018 | 67 | 315 | 3.5 | 9.6 | 0.00 | 0.00 | 0.00 | 47 | 1012.9 |
| 20260506025019 | 67 | 293 | 4.3 | 10.4 | 0.00 | 0.00 | 0.00 | 46 | 1012.4 |
| 20260506024019 | 68 | 293 | 5.2 | 9.6 | 0.00 | 0.00 | 0.00 | 45 | 1012.2 |
| 20260506023039 | 69 | 338 | 3.5 | 13.0 | 0.00 | 0.00 | 0.00 | 44 | 1012.4 |
| 20260506022019 | 70 | 338 | 5.2 | 13.0 | 0.00 | 0.00 | 0.00 | 44 | 1012.1 |
| 20260506021039 | 71 | 315 | 2.6 | 7.8 | 0.00 | 0.00 | 0.00 | 42 | 1012.3 |
| 20260506020018 | 71 | 315 | 4.3 | 10.4 | 0.00 | 0.00 | 0.00 | 40 | 1012.1 |
| 20260506015019 | 72 | 315 | 5.2 | 10.4 | 0.00 | 0.00 | 0.00 | 39 | 1011.8 |
| 20260506014019 | 72 | 315 | 6.1 | 13.9 | 0.00 | 0.00 | 0.00 | 39 | 1012.1 |
| 20260506013019 | 72 | 315 | 4.3 | 9.6 | 0.00 | 0.00 | 0.00 | 40 | 1012.0 |
| 20260506012018 | 73 | 315 | 4.3 | 11.3 | 0.00 | 0.00 | 0.00 | 38 | 1012.2 |
| 20260506011019 | 73 | 338 | 3.5 | 9.6 | 0.00 | 0.00 | 0.00 | 40 | 1012.1 |
| 20260506010019 | 72 | 315 | 6.1 | 13.0 | 0.00 | 0.00 | 0.00 | 41 | 1011.9 |
| 20260506005018 | 72 | 315 | 5.2 | 13.0 | 0.00 | 0.00 | 0.00 | 40 | 1012.4 |
| 20260506004039 | 73 | 315 | 5.2 | 13.9 | 0.00 | 0.00 | 0.00 | 39 | 1012.4 |
| 20260506003019 | 73 | 315 | 5.2 | 11.3 | 0.00 | 0.00 | 0.00 | 38 | 1012.3 |
| 20260506002022 | 74 | 338 | 4.3 | 12.2 | 0.00 | 0.00 | 0.00 | 38 | 1013.2 |
| 20260506001019 | 73 | 315 | 3.5 | 11.3 | 0.00 | 0.00 | 0.00 | 38 | 1012.7 |
| 20260506000019 | 75 | 293 | 5.2 | 12.2 | 0.00 | 0.00 | 0.00 | 34 | 1012.9 |
| 20260505235018 | 75 | 293 | 5.2 | 10.4 | 0.00 | 0.00 | 0.00 | 32 | 1013.3 |
| 20260505234017 | 75 | 315 | 6.1 | 12.2 | 0.00 | 0.00 | 0.00 | 31 | 1013.3 |
| 20260505233019 | 75 | 315 | 6.1 | 12.2 | 0.00 | 0.00 | 0.00 | 31 | 1013.3 |
| 20260505232019 | 75 | 293 | 6.1 | 12.2 | 0.00 | 0.00 | 0.00 | 30 | 1013.6 |
| 20260505231019 | 75 | 293 | 7.0 | 13.9 | 0.00 | 0.00 | 0.00 | 29 | 1013.6 |
| 20260505230019 | 76 | 293 | 4.3 | 9.6 | 0.00 | 0.00 | 0.00 | 29 | 1013.6 |
| 20260505225019 | 75 | 293 | 5.2 | 13.0 | 0.00 | 0.00 | 0.00 | 29 | 1013.7 |
| 20260505224020 | 75 | 315 | 2.6 | 7.0 | 0.00 | 0.00 | 0.00 | 30 | 1013.7 |
| 20260505223020 | 75 | 293 | 4.3 | 8.7 | 0.00 | 0.00 | 0.00 | 30 | 1013.7 |
| 20260505222019 | 75 | 270 | 3.5 | 7.0 | 0.00 | 0.00 | 0.00 | 31 | 1013.7 |
| 20260505221039 | 74 | 270 | 5.2 | 10.4 | 0.00 | 0.00 | 0.00 | 30 | 1013.8 |
| 20260505220018 | 73 | 315 | 2.6 | 6.1 | 0.00 | 0.00 | 0.00 | 31 | 1013.6 |
| 20260505215039 | 72 | 293 | 4.3 | 10.4 | 0.00 | 0.00 | 0.00 | 32 | 1013.7 |
| 20260505214019 | 73 | 293 | 3.5 | 7.8 | 0.00 | 0.00 | 0.00 | 32 | 1014.0 |
| 20260505213019 | 73 | 270 | 4.3 | 8.7 | 0.00 | 0.00 | 0.00 | 32 | 1014.0 |
| 20260505212019 | 72 | 270 | 3.5 | 7.8 | 0.00 | 0.00 | 0.00 | 32 | 1013.9 |
| 20260505211018 | 73 | 315 | 4.3 | 10.4 | 0.00 | 0.00 | 0.00 | 32 | 1014.2 |
| 20260505210019 | 73 | 293 | 4.3 | 10.4 | 0.00 | 0.00 | 0.00 | 34 | 1014.3 |
| 20260505205018 | 71 | 293 | 3.5 | 7.0 | 0.00 | 0.00 | 0.00 | 36 | 1013.8 |
| 20260505204038 | 71 | 293 | 3.5 | 8.7 | 0.00 | 0.00 | 0.00 | 34 | 1013.9 |
| 20260505203019 | 70 | 293 | 4.3 | 10.4 | 0.00 | 0.00 | 0.00 | 37 | 1013.9 |
| 20260505202017 | 70 | 293 | 4.3 | 8.7 | 0.00 | 0.00 | 0.00 | 34 | 1013.7 |
| 20260505201039 | 71 | 293 | 5.2 | 11.3 | 0.00 | 0.00 | 0.00 | 33 | 1014.0 |
| 20260505200019 | 70 | 293 | 4.3 | 9.6 | 0.00 | 0.00 | 0.00 | 34 | 1013.6 |
| 20260505195019 | 70 | 0 | 4.3 | 8.7 | 0.00 | 0.00 | 0.00 | 34 | 1013.9 |
| 20260505194019 | 71 | 293 | 5.2 | 9.6 | 0.00 | 0.00 | 0.00 | 33 | 1014.2 |
| 20260505193019 | 70 | 0 | 3.5 | 7.8 | 0.00 | 0.00 | 0.00 | 35 | 1013.9 |
| 20260505192019 | 70 | 315 | 3.5 | 8.7 | 0.00 | 0.00 | 0.00 | 35 | 1014.2 |
| 20260505191019 | 69 | 293 | 4.3 | 7.8 | 0.00 | 0.00 | 0.00 | 34 | 1013.9 |
| 20260505190019 | 70 | 270 | 4.3 | 7.8 | 0.00 | 0.00 | 0.00 | 33 | 1014.2 |
| 20260505185019 | 69 | 315 | 3.5 | 9.6 | 0.00 | 0.00 | 0.00 | 34 | 1014.2 |
| 20260505184018 | 70 | 270 | 3.5 | 7.8 | 0.00 | 0.00 | 0.00 | 37 | 1014.3 |
| 20260505183019 | 69 | 293 | 3.5 | 7.8 | 0.00 | 0.00 | 0.00 | 35 | 1014.4 |
| 20260505182019 | 69 | 293 | 3.5 | 7.0 | 0.00 | 0.00 | 0.00 | 38 | 1014.5 |
| 20260505181018 | 67 | 315 | 3.5 | 7.0 | 0.00 | 0.00 | 0.00 | 37 | 1014.2 |
| 20260505180019 | 67 | 315 | 2.6 | 7.8 | 0.00 | 0.00 | 0.00 | 39 | 1014.2 |
| 20260505175018 | 66 | 315 | 3.5 | 7.0 | 0.00 | 0.00 | 0.00 | 36 | 1014.2 |
| 20260505174018 | 65 | 315 | 2.6 | 7.0 | 0.00 | 0.00 | 0.00 | 38 | 1014.0 |
| 20260505173019 | 65 | 270 | 3.5 | 7.0 | 0.00 | 0.00 | 0.00 | 41 | 1014.0 |
| 20260505172019 | 65 | 293 | 3.5 | 7.0 | 0.00 | 0.00 | 0.00 | 41 | 1014.2 |
| 20260505171019 | 64 | 293 | 3.5 | 7.0 | 0.00 | 0.00 | 0.00 | 42 | 1014.1 |
| 20260505170039 | 63 | 293 | 2.6 | 6.1 | 0.00 | 0.00 | 0.00 | 42 | 1013.7 |
| 20260505165018 | 63 | 315 | 2.6 | 7.0 | 0.00 | 0.00 | 0.00 | 43 | 1014.1 |
| 20260505164019 | 62 | 315 | 2.6 | 7.0 | 0.00 | 0.00 | 0.00 | 41 | 1013.8 |
| 20260505163020 | 61 | 293 | 2.6 | 7.0 | 0.00 | 0.00 | 0.00 | 45 | 1013.8 |
| 20260505162018 | 60 | 293 | 2.6 | 6.1 | 0.00 | 0.00 | 0.00 | 50 | 1013.9 |
| 20260505161018 | 59 | 315 | 2.6 | 5.2 | 0.00 | 0.00 | 0.00 | 58 | 1013.7 |
| 20260505153039 | 52 | 248 | 0.9 | 3.5 | 0.00 | 0.00 | 0.00 | 76 | 1013.2 |
| 20260505152019 | 50 | 0.0 | 0.9 | 0.00 | 0.00 | 0.00 | 81 | 1012.9 | |
| 20260505151020 | 49 | 0.0 | 1.7 | 0.00 | 0.00 | 0.00 | 84 | 1012.5 | |
| 20260505125018 | 44 | 0.0 | 0.9 | 0.00 | 0.00 | 0.00 | 77 | 1011.6 | |
| 20260505124038 | 45 | 0.0 | 0.0 | 0.00 | 0.00 | 0.00 | 75 | 1011.5 | |
| 20260505123018 | 46 | 203 | 0.9 | 1.7 | 0.00 | 0.00 | 0.00 | 72 | 1011.6 |
| 20260505122018 | 47 | 338 | 0.9 | 2.6 | 0.00 | 0.00 | 0.00 | 71 | 1012.2 |
| 20260505121018 | 48 | 0.0 | 0.0 | 0.00 | 0.00 | 0.00 | 69 | 1012.3 | |
| 20260505120019 | 50 | 0.0 | 0.0 | 0.00 | 0.00 | 0.00 | 67 | 1012.5 | |
| 20260505115019 | 51 | 0.0 | 0.0 | 0.00 | 0.00 | 0.00 | 65 | 1012.2 | |
| 20260505114018 | 53 | 0.0 | 1.7 | 0.00 | 0.00 | 0.00 | 62 | 1012.5 | |
| 20260505113019 | 54 | 0.0 | 1.7 | 0.00 | 0.00 | 0.00 | 61 | 1012.7 | |
| 20260505112018 | 55 | 338 | 0.9 | 2.6 | 0.00 | 0.00 | 0.00 | 60 | 1012.7 |
| 20260505111018 | 55 | 315 | 1.7 | 5.2 | 0.00 | 0.00 | 0.00 | 60 | 1012.9 |
| 20260505102019 | 56 | 293 | 2.6 | 7.0 | 0.00 | 0.00 | 0.00 | 53 | 1013.1 |
| 20260505101019 | 56 | 293 | 3.5 | 5.2 | 0.00 | 0.00 | 0.00 | 54 | 1013.5 |
| 20260505100018 | 56 | 293 | 1.7 | 3.5 | 0.00 | 0.00 | 0.00 | 53 | 1013.5 |
| 20260505095039 | 56 | 293 | 1.7 | 6.1 | 0.00 | 0.00 | 0.00 | 51 | 1013.2 |
| 20260505094018 | 57 | 315 | 1.7 | 4.3 | 0.00 | 0.00 | 0.00 | 48 | 1013.2 |
| 20260505093018 | 57 | 293 | 3.5 | 9.6 | 0.00 | 0.00 | 0.00 | 49 | 1013.5 |
| 20260505092018 | 56 | 293 | 2.6 | 7.8 | 0.00 | 0.00 | 0.00 | 51 | 1013.3 |
| 20260505091018 | 56 | 315 | 2.6 | 5.2 | 0.00 | 0.00 | 0.00 | 53 | 1013.1 |
| 20260505090038 | 57 | 293 | 2.6 | 5.2 | 0.00 | 0.00 | 0.00 | 55 | 1013.2 |
| 20260505085018 | 57 | 293 | 2.6 | 7.0 | 0.00 | 0.00 | 0.00 | 56 | 1013.6 |
| 20260505084018 | 57 | 315 | 2.6 | 7.0 | 0.00 | 0.00 | 0.00 | 57 | 1013.3 |
| 20260505083038 | 56 | 293 | 3.5 | 6.1 | 0.00 | 0.00 | 0.00 | 59 | 1013.4 |
| 20260505082018 | 56 | 293 | 2.6 | 4.3 | 0.00 | 0.00 | 0.00 | 60 | 1013.1 |
| 20260505081038 | 55 | 270 | 2.6 | 3.5 | 0.00 | 0.00 | 0.00 | 62 | 1013.0 |
| 20260505080018 | 55 | 270 | 1.7 | 4.3 | 0.00 | 0.00 | 0.00 | 62 | 1013.0 |
| 20260505075018 | 56 | 270 | 0.9 | 3.5 | 0.00 | 0.00 | 0.00 | 61 | 1012.9 |
| 20260505074018 | 57 | 270 | 0.9 | 3.5 | 0.00 | 0.00 | 0.00 | 60 | 1012.9 |
| 20260505073018 | 57 | 293 | 1.7 | 4.3 | 0.00 | 0.00 | 0.00 | 59 | 1013.1 |
| 20260505072018 | 57 | 293 | 2.6 | 5.2 | 0.00 | 0.00 | 0.00 | 59 | 1012.9 |
| 20260505071019 | 58 | 270 | 2.6 | 5.2 | 0.00 | 0.00 | 0.00 | 61 | 1013.3 |
| 20260505070018 | 58 | 270 | 2.6 | 6.1 | 0.00 | 0.00 | 0.00 | 63 | 1013.2 |
| 20260505065018 | 58 | 315 | 1.7 | 4.3 | 0.00 | 0.00 | 0.00 | 62 | 1012.9 |
| 20260505064038 | 59 | 315 | 2.6 | 5.2 | 0.00 | 0.00 | 0.00 | 63 | 1012.8 |
| 20260505063038 | 59 | 315 | 3.5 | 6.1 | 0.00 | 0.00 | 0.00 | 62 | 1012.6 |
| 20260505062019 | 59 | 293 | 2.6 | 7.8 | 0.00 | 0.00 | 0.00 | 63 | 1012.5 |
| 20260505061018 | 59 | 338 | 2.6 | 7.0 | 0.00 | 0.00 | 0.00 | 63 | 1012.3 |
| 20260505060018 | 60 | 315 | 4.3 | 7.8 | 0.00 | 0.00 | 0.00 | 62 | 1012.5 |
| 20260505055018 | 60 | 293 | 3.5 | 8.7 | 0.00 | 0.00 | 0.00 | 62 | 1012.3 |
| 20260505054039 | 60 | 315 | 3.5 | 8.7 | 0.00 | 0.00 | 0.00 | 62 | 1012.2 |
| 20260505053038 | 61 | 315 | 4.3 | 9.6 | 0.00 | 0.00 | 0.00 | 62 | 1012.1 |
| 20260505052018 | 61 | 293 | 3.5 | 7.8 | 0.00 | 0.00 | 0.00 | 61 | 1011.9 |
| 20260505051018 | 60 | 315 | 3.5 | 7.0 | 0.00 | 0.00 | 0.00 | 61 | 1011.8 |
| 20260505041018 | 62 | 315 | 1.7 | 5.2 | 0.00 | 0.00 | 0.00 | 61 | 1009.8 |
| 20260505040038 | 62 | 315 | 1.7 | 4.3 | 0.00 | 0.00 | 0.00 | 60 | 1009.7 |